USA 115 (MILSTAR-1 2)

Last updated on Sun Oct 06 2024 00:02:37 GMT+0000 (Coordinated Universal Time)

1 23712U 95060A 24279.30253788 -.00000009 00000+0 00000+0 0 9993 2 23712 13.8429 8.2340 0002337 228.2800 126.8617 1.00273696 26663
UTC large
Height (km)
Speed (km/s)
/
Latitude / Longitude
Inclination (degrees)
Orbital Period (minutes)
Azimuth
Elevation
Range (km)
Doppler Factor

Next 0 passes for location: London (51.5072 / 0.1276)

Sorry there are no passes over London.